Location: Hermaringen
(48.5952°N, 10.2585°E)
Time: 18:52:03
(UTC+00:00)

Injun/Solrad 3 - Pass Details

Date: 19 February 2026
Orbit: 872 x 984 km, 66.8° (Epoch: 6 March)

Event Time Altitude Azimuth Distance (km) Brightness Sun altitude
Rises 20:12:56 0° 316° (NW) 3,586 11.9 -34.2°
Reaches altitude 10° 20:15:54 10° 303° (WNW) 2,657 11.1 -34.6°
Maximum altitude 20:20:41 24° 252° (WSW) 1,859 9.8 -35.3°
Enters shadow 20:22:36 21° 227° (SW) 2,016 9.8 -35.6°
